Find OPS 8781

NORAD ID: 10502 Int'l Des: 1977-112 Owner: NRO/NRL Country: US operational
LEO

Live Position

Loading 3D Globe...

About OPS 8781

Description loading...

Upcoming Passes

Passes for default location (London). Set your location on the main map for personalized predictions.

Altitude History

Loading altitude history...

Two-Line Element Set

1 10502U 77112A 26106.74282306 .00000758 00000-0 19045-3 0 9995
2 10502 63.3290 276.7863 0474283 161.5071 200.3906 14.07281557 99425
Epoch: Apr 16, 2026 • Age: 19 hours

Current Status

Altitude 1140.9 km
Velocity 7.15 km/s
Sub-Earth Point 15.88°N, 113.13°W
Launch Date Dec 8, 1977
Age 48.3 years
Type other

Technical Details

Classification Payload
Mass 559.00 kg
Dry Mass 559.00 kg
Total Mass 590.00 kg
Length 1.60 m
Diameter 1.50 m
Span 2.70 m
Shape Box + Ant
Manufacturer NRL
Bus Type NOSS MSD
Phase Status Attached in Orbit
Owner/State NRO/NRL/US

Most Searched